Regional Weather Roundup
Issued by NWS

Home | Current Version | Previous Version | Graphics & Text | Print | Product List | Glossary Off
Versions: 1 2 3 4 5 6 7 8 9 10 11 12 13 14 15 16 17 18 19 20 21 22 23 24 25 26 27 28 29 30 31 32 33 34 35 36 37 38 39 40 41 42 43 44 45 46 47 48 49 50

000
ASUS43 KTOP 310708
RWRKS

WEATHER ROUNDUP FOR KANSAS
NATIONAL WEATHER SERVICE GOODLAND KS
200 AM CDT SUN AUG 31 2014

NOTE:  "FAIR" INDICATES FEW OR NO CLOUDS BELOW 12,000 FEET WITH NO
SIGNIFICANT WEATHER AND/OR OBSTRUCTIONS TO VISIBILITY.

KSZ001>006-013>018-027>032-041>047-310800-
NORTHWEST KANSAS

CITY           SKY/WX    TMP DP  RH WIND       PRES   REMARKS
GOODLAND       CLOUDY    68  55  63 S14G30    29.95R THUNDER
HAYS           CLEAR     73  54  49 S15       29.85F
HILL CITY      PTCLDY    73  57  57 S9        29.84F
RUSSELL        CLEAR     73  58  59 S14       29.84F
$$

KSZ061>065-074>080-084>089-310800-
SOUTHWEST KANSAS

CITY           SKY/WX    TMP DP  RH WIND       PRES   REMARKS
DODGE CITY     PTCLDY    80  54  40 S23G33    29.87S
ELKHART          N/A     71  53  52 S13         N/A
GARDEN CITY    CLEAR     72  57  59 S13       29.87F
GREAT BEND     CLEAR     72  55  56 S15       29.86F
LIBERAL        MOCLDY    75  54  46 SE12      29.92F
PRATT          CLEAR     73  55  53 S10       29.90F
$$

KSZ066>073-081>083-090>101-310800-
SOUTHEAST KANSAS

CITY           SKY/WX    TMP DP  RH WIND       PRES   REMARKS
CHANUTE        CLEAR     73  69  87 S9        29.91S
COFFEYVILLE    CLEAR     73  70  90 S6        29.91S
HUTCHINSON     CLEAR     71  61  70 SE6       29.89S
MEDICINE LODGE   N/A     72  62  71 CALM      29.88F
NEWTON         CLEAR     70  59  68 S8        29.92F
PARSONS        CLEAR     73  68  84 S5        29.92S
WICHITA INTL   PTCLDY    74  67  78 S10       29.88F
WICHITA JABRA  CLEAR     73  66  78 S10       29.89S
WICHITA MCCONL CLEAR     74  71  93 SE8       29.89F
WINFIELD       CLEAR     74  69  85 SE9       29.90F
$$

KSZ007>012-019>026-033>040-048>060-102>105-310800-
NORTHEAST KANSAS

CITY           SKY/WX    TMP DP  RH WIND       PRES   REMARKS
CONCORDIA      CLEAR     72  60  66 S10       29.84F
EMPORIA        CLEAR     70  61  73 S7        29.89S
LAWRENCE       CLEAR     71  65  81 E6        29.88F
MANHATTAN      CLEAR     72  61  68 CALM      29.85F
MARYSVILLE     CLEAR     72  63  73 SE6       29.85S
OLATHE IND     CLEAR     72  66  81 S8        29.89F
OLATHE EXE     CLEAR     71  66  84 S6        29.89F
SALINA         CLEAR     72  60  66 S10       29.85F
TOPEKA BILLARD CLEAR     71  66  84 CALM      29.88S
TOPEKA FORBES  CLEAR     71  64  78 S6        29.88F
$$


USA.gov is the U.S. government's official web portal to all federal, state and local government web resources and services.